Time,TemperatureF,DewpointF,PressureIn,WindDirection,WindDirectionDegrees,WindSpeedMPH,WindSpeedGustMPH,Humidity,HourlyPrecipIn,Conditions,Clouds,dailyrainin,SoftwareType,DateUTC
2013-05-26 00:01:00,54.0,46.0,29.96,North,0,0.0,0.0,75,0.00,,,0.00,,2013-05-26 07:01:00,
2013-05-26 00:11:00,54.0,46.0,29.96,North,0,0.0,0.0,75,0.00,,,0.00,,2013-05-26 07:11:00,
2013-05-26 00:21:00,53.0,46.0,29.96,North,0,0.0,0.0,76,0.00,,,0.00,,2013-05-26 07:21:00,
2013-05-26 00:31:00,53.0,46.0,29.96,North,0,0.0,0.0,77,0.00,,,0.00,,2013-05-26 07:31:00,
2013-05-26 00:42:00,53.0,46.0,29.96,North,0,0.0,0.0,77,0.00,,,0.00,,2013-05-26 07:42:00,
2013-05-26 00:52:00,53.0,46.0,29.96,North,0,0.0,0.0,77,0.00,,,0.00,,2013-05-26 07:52:00,
2013-05-26 01:01:00,54.0,47.0,29.95,North,0,0.0,2.0,76,0.00,,,0.00,,2013-05-26 08:01:00,
2013-05-26 01:11:00,54.0,47.0,29.95,North,0,0.0,2.0,76,0.00,,,0.00,,2013-05-26 08:11:00,
2013-05-26 01:21:00,54.0,46.0,29.95,North,9,1.0,3.0,75,0.00,,,0.00,,2013-05-26 08:21:00,
2013-05-26 01:31:00,53.0,46.0,29.96,North,0,0.0,0.0,77,0.00,,,0.00,,2013-05-26 08:31:00,
2013-05-26 01:42:00,53.0,46.0,29.96,North,0,0.0,0.0,77,0.00,,,0.00,,2013-05-26 08:42:00,
2013-05-26 01:53:00,53.0,46.0,29.96,North,0,0.0,0.0,77,0.00,,,0.00,,2013-05-26 08:53:00,
2013-05-26 02:01:00,54.0,46.0,29.95,North,0,0.0,0.0,75,0.00,,,0.00,,2013-05-26 09:01:00,
2013-05-26 02:11:00,54.0,46.0,29.95,North,0,0.0,0.0,75,0.00,,,0.00,,2013-05-26 09:11:00,
2013-05-26 02:21:00,54.0,46.0,29.95,North,0,0.0,0.0,75,0.00,,,0.00,,2013-05-26 09:21:00,
2013-05-26 02:33:00,54.0,47.0,29.95,North,0,0.0,0.0,76,0.00,,,0.00,,2013-05-26 09:33:00,
2013-05-26 02:42:00,54.0,47.0,29.95,North,0,0.0,0.0,76,0.00,,,0.00,,2013-05-26 09:42:00,
2013-05-26 02:52:00,54.0,47.0,29.95,North,0,0.0,0.0,76,0.00,,,0.00,,2013-05-26 09:52:00,
2013-05-26 03:02:00,54.0,46.0,29.94,North,0,0.0,0.0,75,0.00,,,0.00,,2013-05-26 10:02:00,
2013-05-26 03:11:00,54.0,46.0,29.94,North,0,0.0,0.0,75,0.00,,,0.00,,2013-05-26 10:11:00,
2013-05-26 03:22:00,53.0,46.0,29.95,ENE,68,2.0,5.0,76,0.00,,,0.00,,2013-05-26 10:22:00,
2013-05-26 03:32:00,53.0,46.0,29.95,ENE,64,1.0,5.0,76,0.00,,,0.00,,2013-05-26 10:32:00,
2013-05-26 03:42:00,53.0,46.0,29.95,ENE,64,1.0,5.0,76,0.00,,,0.00,,2013-05-26 10:42:00,
2013-05-26 03:52:00,53.0,46.0,29.95,ENE,64,1.0,5.0,76,0.00,,,0.00,,2013-05-26 10:52:00,
2013-05-26 04:02:00,52.0,45.0,29.95,ENE,72,1.0,5.0,77,0.00,,,0.00,,2013-05-26 11:02:00,
2013-05-26 04:11:00,52.0,45.0,29.95,ENE,72,1.0,5.0,77,0.00,,,0.00,,2013-05-26 11:11:00,
2013-05-26 04:22:00,52.0,45.0,29.95,ENE,69,3.0,7.0,77,0.00,,,0.00,,2013-05-26 11:22:00,
2013-05-26 04:32:00,52.0,45.0,29.96,ENE,63,3.0,6.0,76,0.00,,,0.00,,2013-05-26 11:32:00,
2013-05-26 04:42:00,52.0,45.0,29.96,ENE,63,3.0,6.0,76,0.00,,,0.00,,2013-05-26 11:42:00,
2013-05-26 04:52:00,52.0,45.0,29.96,ENE,63,3.0,6.0,76,0.00,,,0.00,,2013-05-26 11:52:00,
2013-05-26 05:01:00,52.0,45.0,29.96,NE,51,1.0,8.0,76,0.00,,,0.00,,2013-05-26 12:01:00,
2013-05-26 05:11:00,52.0,45.0,29.96,NE,51,1.0,8.0,76,0.00,,,0.00,,2013-05-26 12:11:00,
2013-05-26 05:21:00,51.0,44.0,29.97,NE,45,3.0,6.0,78,0.00,,,0.00,,2013-05-26 12:21:00,
2013-05-26 05:31:00,52.0,45.0,29.96,NE,53,2.0,6.0,78,0.00,,,0.00,,2013-05-26 12:31:00,
2013-05-26 05:41:00,52.0,45.0,29.96,NE,53,2.0,6.0,78,0.00,,,0.00,,2013-05-26 12:41:00,
2013-05-26 05:52:00,52.0,45.0,29.96,NE,53,2.0,6.0,78,0.00,,,0.00,,2013-05-26 12:52:00,
2013-05-26 06:02:00,52.0,45.0,29.96,ENE,64,1.0,5.0,77,0.00,,,0.00,,2013-05-26 13:02:00,
2013-05-26 06:11:00,52.0,45.0,29.96,ENE,64,1.0,5.0,77,0.00,,,0.00,,2013-05-26 13:11:00,
2013-05-26 06:21:00,52.0,45.0,29.96,ENE,75,2.0,5.0,77,0.00,,,0.00,,2013-05-26 13:21:00,
2013-05-26 06:32:00,52.0,45.0,29.97,East,82,2.0,6.0,78,0.00,,,0.00,,2013-05-26 13:32:00,
2013-05-26 06:42:00,52.0,45.0,29.97,East,82,2.0,6.0,78,0.00,,,0.00,,2013-05-26 13:42:00,
2013-05-26 06:52:00,52.0,45.0,29.97,East,82,2.0,6.0,78,0.00,,,0.00,,2013-05-26 13:52:00,
2013-05-26 07:01:00,53.0,47.0,29.98,ESE,118,4.0,7.0,79,0.00,,,0.00,,2013-05-26 14:01:00,
2013-05-26 07:11:00,53.0,47.0,29.98,ESE,118,4.0,7.0,79,0.00,,,0.00,,2013-05-26 14:11:00,
2013-05-26 07:21:00,53.0,47.0,29.98,SE,126,4.0,7.0,79,0.00,,,0.00,,2013-05-26 14:21:00,
2013-05-26 07:32:00,53.0,47.0,29.99,North,0,0.0,8.0,79,0.00,,,0.00,,2013-05-26 14:32:00,
2013-05-26 07:41:00,53.0,47.0,29.99,North,0,0.0,8.0,79,0.00,,,0.00,,2013-05-26 14:41:00,
2013-05-26 07:51:00,53.0,47.0,29.99,North,0,0.0,8.0,79,0.00,,,0.00,,2013-05-26 14:51:00,
2013-05-26 08:01:00,54.0,47.0,30.01,North,0,0.0,7.0,78,0.00,,,0.00,,2013-05-26 15:01:00,
2013-05-26 08:11:00,54.0,47.0,30.01,North,0,0.0,7.0,78,0.00,,,0.00,,2013-05-26 15:11:00,
2013-05-26 08:22:00,55.0,48.0,30.01,North,0,0.0,5.0,76,0.00,,,0.00,,2013-05-26 15:22:00,
2013-05-26 08:33:00,55.0,47.0,30.01,ESE,118,1.0,4.0,75,0.00,,,0.00,,2013-05-26 15:33:00,
2013-05-26 08:43:00,55.0,47.0,30.01,ESE,118,1.0,4.0,75,0.00,,,0.00,,2013-05-26 15:43:00,
2013-05-26 08:53:00,55.0,47.0,30.01,ESE,118,1.0,4.0,75,0.00,,,0.00,,2013-05-26 15:53:00,
2013-05-26 09:03:00,56.0,48.0,30.01,North,0,0.0,2.0,74,0.00,,,0.00,,2013-05-26 16:03:00,
2013-05-26 09:12:00,58.0,49.0,30.01,North,0,0.0,6.0,73,0.00,,,0.00,,2013-05-26 16:12:00,
2013-05-26 09:23:00,58.0,49.0,30.01,North,0,0.0,6.0,73,0.00,,,0.00,,2013-05-26 16:23:00,
2013-05-26 09:33:00,58.0,49.0,30.01,SSW,200,2.0,6.0,71,0.00,,,0.00,,2013-05-26 16:33:00,
2013-05-26 09:42:00,58.0,49.0,30.01,SSW,200,2.0,6.0,71,0.00,,,0.00,,2013-05-26 16:42:00,
2013-05-26 09:52:00,58.0,49.0,30.01,SSW,200,2.0,6.0,71,0.00,,,0.00,,2013-05-26 16:52:00,
2013-05-26 10:02:00,58.0,49.0,30.01,SSW,212,3.0,6.0,71,0.00,,,0.00,,2013-05-26 17:02:00,
2013-05-26 10:11:00,59.0,50.0,30.00,North,0,0.0,7.0,72,0.00,,,0.00,,2013-05-26 17:11:00,
2013-05-26 10:22:00,59.0,50.0,30.00,North,0,0.0,7.0,72,0.00,,,0.00,,2013-05-26 17:22:00,
2013-05-26 10:32:00,59.0,50.0,30.01,South,185,3.0,8.0,72,0.00,,,0.00,,2013-05-26 17:32:00,
2013-05-26 10:42:00,59.0,50.0,30.01,South,185,3.0,8.0,72,0.00,,,0.00,,2013-05-26 17:42:00,
2013-05-26 10:52:00,59.0,50.0,30.01,South,185,3.0,8.0,72,0.00,,,0.00,,2013-05-26 17:52:00,
2013-05-26 11:01:00,58.0,49.0,30.01,SW,225,7.0,12.0,73,0.00,,,0.00,,2013-05-26 18:01:00,
2013-05-26 11:11:00,58.0,49.0,30.01,SW,225,7.0,12.0,73,0.00,,,0.00,,2013-05-26 18:11:00,
2013-05-26 11:21:00,59.0,51.0,30.01,SW,218,8.0,13.0,74,0.00,,,0.00,,2013-05-26 18:21:00,
2013-05-26 11:31:00,59.0,50.0,30.01,SSW,199,6.0,12.0,71,0.00,,,0.00,,2013-05-26 18:31:00,
2013-05-26 11:42:00,59.0,50.0,30.01,SSW,199,6.0,12.0,71,0.00,,,0.00,,2013-05-26 18:42:00,
2013-05-26 11:52:00,59.0,50.0,30.01,SSW,199,6.0,12.0,71,0.00,,,0.00,,2013-05-26 18:52:00,
2013-05-26 12:01:00,60.0,50.0,30.01,SSW,207,8.0,13.0,69,0.00,,,0.00,,2013-05-26 19:01:00,
2013-05-26 12:11:00,60.0,50.0,30.01,SSW,207,8.0,13.0,69,0.00,,,0.00,,2013-05-26 19:11:00,
2013-05-26 12:21:00,59.0,48.0,30.01,SW,230,10.0,17.0,68,0.00,,,0.00,,2013-05-26 19:21:00,
2013-05-26 12:31:00,60.0,49.0,30.01,SW,217,7.0,17.0,68,0.00,,,0.00,,2013-05-26 19:31:00,
2013-05-26 12:42:00,60.0,49.0,30.01,SW,217,7.0,17.0,68,0.00,,,0.00,,2013-05-26 19:42:00,
2013-05-26 12:52:00,60.0,49.0,30.01,SW,217,7.0,17.0,68,0.00,,,0.00,,2013-05-26 19:52:00,
2013-05-26 13:01:00,60.0,49.0,30.01,SW,223,9.0,17.0,67,0.00,,,0.00,,2013-05-26 20:01:00,
2013-05-26 13:11:00,60.0,49.0,30.01,SW,223,9.0,17.0,67,0.00,,,0.00,,2013-05-26 20:11:00,
2013-05-26 13:21:00,60.0,49.0,30.01,SW,223,9.0,17.0,67,0.00,,,0.00,,2013-05-26 20:21:00,
2013-05-26 13:32:00,61.0,49.0,30.01,SW,233,7.0,14.0,65,0.00,,,0.00,,2013-05-26 20:32:00,
2013-05-26 13:42:00,61.0,49.0,30.01,SW,233,7.0,14.0,65,0.00,,,0.00,,2013-05-26 20:42:00,
2013-05-26 13:52:00,61.0,49.0,30.01,SW,233,7.0,14.0,65,0.00,,,0.00,,2013-05-26 20:52:00,
2013-05-26 14:01:00,61.0,49.0,30.01,SW,233,7.0,14.0,65,0.00,,,0.00,,2013-05-26 21:01:00,
2013-05-26 14:11:00,61.0,49.0,30.01,SW,233,7.0,14.0,65,0.00,,,0.00,,2013-05-26 21:11:00,
2013-05-26 14:22:00,61.0,49.0,30.01,WSW,239,6.0,20.0,65,0.00,,,0.00,,2013-05-26 21:22:00,
2013-05-26 14:33:00,61.0,49.0,30.00,SSW,202,6.0,12.0,65,0.00,,,0.00,,2013-05-26 21:33:00,
2013-05-26 14:43:00,61.0,49.0,30.00,SSW,202,6.0,12.0,65,0.00,,,0.00,,2013-05-26 21:43:00,
2013-05-26 14:53:00,61.0,49.0,30.00,SSW,202,6.0,12.0,65,0.00,,,0.00,,2013-05-26 21:53:00,
2013-05-26 15:02:00,62.0,50.0,30.00,SW,221,5.0,12.0,64,0.00,,,0.00,,2013-05-26 22:02:00,
2013-05-26 15:12:00,62.0,50.0,30.00,SW,221,5.0,12.0,64,0.00,,,0.00,,2013-05-26 22:12:00,
2013-05-26 15:23:00,60.0,49.0,30.01,SW,219,6.0,16.0,66,0.00,,,0.00,,2013-05-26 22:23:00,
2013-05-26 15:33:00,61.0,49.0,30.00,WSW,252,7.0,14.0,65,0.00,,,0.00,,2013-05-26 22:33:00,
2013-05-26 15:42:00,61.0,49.0,30.00,WSW,252,7.0,14.0,65,0.00,,,0.00,,2013-05-26 22:42:00,
2013-05-26 15:53:00,61.0,49.0,30.00,WSW,252,7.0,14.0,65,0.00,,,0.00,,2013-05-26 22:53:00,
2013-05-26 16:02:00,60.0,49.0,30.00,WSW,238,6.0,17.0,67,0.00,,,0.00,,2013-05-26 23:02:00,
2013-05-26 16:11:00,60.0,49.0,30.00,WSW,238,6.0,17.0,67,0.00,,,0.00,,2013-05-26 23:11:00,
2013-05-26 16:22:00,60.0,49.0,30.00,WSW,238,6.0,17.0,67,0.00,,,0.00,,2013-05-26 23:22:00,
2013-05-26 16:32:00,62.0,48.0,29.99,WSW,245,3.0,6.0,61,0.00,,,0.00,,2013-05-26 23:32:00,
2013-05-26 16:43:00,62.0,48.0,29.99,WSW,245,3.0,6.0,61,0.00,,,0.00,,2013-05-26 23:43:00,
2013-05-26 16:52:00,62.0,48.0,29.99,WSW,245,3.0,6.0,61,0.00,,,0.00,,2013-05-26 23:52:00,
2013-05-26 17:02:00,62.0,47.0,29.98,WSW,241,3.0,8.0,59,0.00,,,0.00,,2013-05-27 00:02:00,
2013-05-26 17:11:00,62.0,47.0,29.98,WSW,241,3.0,8.0,59,0.00,,,0.00,,2013-05-27 00:11:00,
2013-05-26 17:21:00,62.0,47.0,29.98,WSW,247,4.0,9.0,58,0.00,,,0.00,,2013-05-27 00:21:00,
2013-05-26 17:31:00,62.0,47.0,29.98,WSW,247,4.0,9.0,58,0.00,,,0.00,,2013-05-27 00:31:00,
2013-05-26 17:41:00,62.0,47.0,29.98,WSW,247,4.0,9.0,58,0.00,,,0.00,,2013-05-27 00:41:00,
2013-05-26 17:52:00,62.0,47.0,29.98,WSW,247,4.0,9.0,58,0.00,,,0.00,,2013-05-27 00:52:00,
2013-05-26 18:22:00,63.0,47.0,29.96,North,0,0.0,3.0,55,0.00,,,0.00,,2013-05-27 01:22:00,
2013-05-26 18:31:00,63.0,47.0,29.96,North,0,0.0,2.0,55,0.00,,,0.00,,2013-05-27 01:31:00,
2013-05-26 18:42:00,63.0,47.0,29.96,North,0,0.0,2.0,55,0.00,,,0.00,,2013-05-27 01:42:00,
2013-05-26 18:52:00,63.0,47.0,29.96,North,0,0.0,2.0,55,0.00,,,0.00,,2013-05-27 01:52:00,
2013-05-26 19:01:00,62.0,47.0,29.96,North,0,0.0,1.0,59,0.00,,,0.00,,2013-05-27 02:01:00,
2013-05-26 19:11:00,62.0,47.0,29.96,North,0,0.0,1.0,59,0.00,,,0.00,,2013-05-27 02:11:00,
2013-05-26 19:21:00,60.0,47.0,29.95,North,0,0.0,0.0,63,0.00,,,0.00,,2013-05-27 02:21:00,
2013-05-26 19:31:00,59.0,47.0,29.96,North,0,0.0,0.0,65,0.00,,,0.00,,2013-05-27 02:31:00,
2013-05-26 19:42:00,59.0,47.0,29.96,North,0,0.0,0.0,65,0.00,,,0.00,,2013-05-27 02:42:00,
2013-05-26 19:52:00,59.0,47.0,29.96,North,0,0.0,0.0,65,0.00,,,0.00,,2013-05-27 02:52:00,
2013-05-26 20:02:00,59.0,47.0,29.96,North,0,0.0,0.0,65,0.00,,,0.00,,2013-05-27 03:02:00,
2013-05-26 20:11:00,59.0,47.0,29.96,North,0,0.0,0.0,65,0.00,,,0.00,,2013-05-27 03:11:00,
2013-05-26 20:21:00,58.0,47.0,29.96,North,0,0.0,0.0,67,0.00,,,0.00,,2013-05-27 03:21:00,
2013-05-26 20:33:00,58.0,47.0,29.97,North,0,0.0,0.0,68,0.00,,,0.00,,2013-05-27 03:33:00,
2013-05-26 20:42:00,58.0,47.0,29.97,North,0,0.0,0.0,68,0.00,,,0.00,,2013-05-27 03:42:00,
2013-05-26 20:53:00,58.0,47.0,29.97,North,0,0.0,0.0,68,0.00,,,0.00,,2013-05-27 03:53:00,
2013-05-26 21:02:00,58.0,49.0,29.97,North,0,0.0,0.0,71,0.00,,,0.00,,2013-05-27 04:02:00,
2013-05-26 21:12:00,58.0,49.0,29.97,North,0,0.0,0.0,71,0.00,,,0.00,,2013-05-27 04:12:00,
2013-05-26 21:22:00,58.0,49.0,29.97,North,0,0.0,0.0,71,0.00,,,0.00,,2013-05-27 04:22:00,
2013-05-26 21:33:00,57.0,48.0,29.97,North,7,1.0,3.0,71,0.00,,,0.00,,2013-05-27 04:33:00,
2013-05-26 21:43:00,57.0,48.0,29.97,North,7,1.0,3.0,71,0.00,,,0.00,,2013-05-27 04:43:00,
2013-05-26 21:52:00,57.0,48.0,29.97,North,7,1.0,3.0,71,0.00,,,0.00,,2013-05-27 04:52:00,
2013-05-26 22:02:00,57.0,48.0,29.97,North,7,1.0,3.0,71,0.00,,,0.00,,2013-05-27 05:02:00,
2013-05-26 22:12:00,57.0,48.0,29.97,North,7,1.0,3.0,71,0.00,,,0.00,,2013-05-27 05:12:00,
2013-05-26 22:22:00,56.0,47.0,29.98,North,0,0.0,0.0,71,0.00,,,0.00,,2013-05-27 05:22:00,
2013-05-26 22:32:00,57.0,47.0,29.98,North,0,0.0,0.0,69,0.00,,,0.00,,2013-05-27 05:32:00,
2013-05-26 22:42:00,57.0,47.0,29.98,North,0,0.0,0.0,69,0.00,,,0.00,,2013-05-27 05:42:00,
2013-05-26 22:52:00,57.0,47.0,29.98,North,0,0.0,0.0,69,0.00,,,0.00,,2013-05-27 05:52:00,
2013-05-26 23:01:00,57.0,47.0,29.98,North,0,0.0,0.0,69,0.00,,,0.00,,2013-05-27 06:01:00,
2013-05-26 23:11:00,57.0,47.0,29.98,North,0,0.0,0.0,69,0.00,,,0.00,,2013-05-27 06:11:00,
2013-05-26 23:21:00,56.0,47.0,29.98,North,0,0.0,3.0,71,0.00,,,0.00,,2013-05-27 06:21:00,
2013-05-26 23:32:00,57.0,48.0,29.98,North,0,0.0,0.0,71,0.00,,,0.00,,2013-05-27 06:32:00,
2013-05-26 23:41:00,57.0,48.0,29.98,North,0,0.0,0.0,71,0.00,,,0.00,,2013-05-27 06:41:00,
2013-05-26 23:52:00,57.0,48.0,29.98,North,0,0.0,0.0,71,0.00,,,0.00,,2013-05-27 06:52:00,